Regional Weather Roundup
Issued by NWS

Home | Current Version | Previous Version | Graphics & Text | Print | Product List | Glossary On
Versions: 1 2 3 4 5 6 7 8 9 10 11 12 13 14 15 16 17 18 19 20 21 22 23 24 25 26 27 28 29 30 31 32 33 34 35 36 37 38 39 40 41 42 43 44 45 46 47 48 49 50
000
ASUS43 KLOT 290409
RWRIL

ILLINOIS REGIONAL WEATHER ROUNDUP
NATIONAL WEATHER SERVICE CHICAGO/ROMEOVILLE IL
1100 PM CDT FRI JUL 28 2017

NOTE: "FAIR" INDICATES FEW OR NO CLOUDS BELOW 12,000 FEET WITH NO
SIGNIFICANT WEATHER AND/OR OBSTRUCTIONS TO VISIBILITY.

* THESE STATIONS ARE NOT UNDER NWS QUALITY CONTROL. THEY ALSO MAY NOT
  REPORT WEATHER SUCH AS PRECIPITATION OR FOG.

ILZ001-002-007-009-015-016-024-290500-
NORTHWEST ILLINOIS

CITY           SKY/WX    TMP DP  RH WIND       PRES   REMARKS
MOLINE         PTCLDY    67  59  75 CALM      30.04R
STERLING*      CLEAR     64  60  87 E6        30.06R
SAVANNA*       CLEAR     65  61  87 N5        30.05S
$$

ILZ003-004-008-010-011-017-018-290500-
NORTH CENTRAL ILLINOIS

CITY           SKY/WX    TMP DP  RH WIND       PRES   REMARKS
ROCKFORD       CLEAR     68  55  63 E8        30.07R
FREEPORT*      PTCLDY    61  59  93 CALM      30.08R
ROCHELLE*      PTCLDY    63  58  85 NE7       30.06S
DE KALB*       CLEAR     64  57  78 NE7       30.06S
PERU*          CLEAR     64  57  79 NE8       30.05R
$$

ILZ005-006-012>014-019>023-290500-
NORTHEAST ILLINOIS

CITY           SKY/WX    TMP DP  RH WIND       PRES   REMARKS
CHICAGO-OHARE  PTCLDY    69  59  70 N9        30.02S
CHICAGO-MIDWAY PTCLDY    71  62  73 N9        30.02R
AURORA         CLEAR     64  57  78 N6        30.04S
LANSING*       CLEAR     69  61  75 N3        30.01S
JOLIET*        CLEAR     70  59  68 N3        30.03R
WAUKEGAN       CLEAR     66  62  87 N6        30.03S
DUPAGE AIRPORT CLEAR     63  58  83 N7        30.03S
KANKAKEE*      CLEAR     66  59  77 CALM      30.02S
WHEELING       CLEAR     67  62  84 N6        30.04S
MORRIS*        CLEAR     63  58  86 CALM      30.02S
ROMEOVILLE*    CLEAR     66  57  72 N7        30.03S
NORTHERLY ISL    N/A     70  63  78 N12         N/A
$$

LMZ740>746-290500-
SOUTHERN LAKE MICHIGAN

STATION/POSITION SKY/WX   TEMP    WIND        PRES    VSBY  WAVE
                          AIR SEA DIR/SP/G                  HT/PER
                          (F)     (DEG/KT/KT) (MB)    (MI)  (FT/S)
SOUTHERN BUOY              71 72   40/ 12/ 14 1016.2          4/ 6
WILMETTE HARBOR            71 71  360/ 14/ 17   N/A           4/ 5
HARRISON CRIB              72      20/ 17/ 19   N/A
BURNHAM HARBOR             70                   N/A
CALUMET HARBOR             71     360/  9/ 14 1015.9R
BURNS HARBOR               72      70/ 12/ 16 1016.6R
MICHIGAN CITY              70      60/ 11/ 12   N/A
MICHIGAN CITY 6N           72 73   80/ 12/ 16   N/A           6/ 6
ST. JOSEPH                 69 70   90/ 12/ 14 1016.5          4/ 6
$$

ILZ025>027-034>036-040-047-049-050-058-095>099-290500-
WEST-CENTRAL ILLINOIS

CITY           SKY/WX    TMP DP  RH WIND       PRES   REMARKS
QUINCY         CLEAR     65  59  81 NE5       30.03R
GALESBURG*     CLEAR     61  58  91 N5        30.05R
MACOMB*        CLEAR     63  59  85 N6        30.05S
JACKSONVILLE*  CLEAR     66  61  86 CALM      30.01S
PITTSFIELD*    CLEAR     68  61  78 N5        30.03R
$$

ILZ028>032-037-038-041>044-048-051>054-059>061-290500-
CENTRAL ILLINOIS

CITY           SKY/WX    TMP DP  RH WIND       PRES   REMARKS
PONTIAC        CLEAR     64  62  96 N7        30.03S
BLOOMINGTON    CLEAR     63  59  87 NE7       30.03R
DECATUR        CLEAR     67  60  78 NE10      30.00R
PEORIA         CLEAR     69  59  70 NE6       30.02R
LACON*         CLEAR     65  59  81 NE3       30.03R
LINCOLN*       CLEAR     66  63  89 N5        30.01S
SPRINGFIELD    CLEAR     68  64  87 N6        30.01R
TAYLORVILLE    CLEAR     65  61  86 N7        30.00S
$$

ILZ033-039-045-046-055>057-062-063-290500-
EAST-CENTRAL ILLINOIS

CITY           SKY/WX    TMP DP  RH WIND       PRES   REMARKS
CHAMPAIGN      CLEAR     68  60  75 NE9       30.00R
RANTOUL*       PTCLDY    69  63  81 N9        30.00S
MATTOON        CLEAR     67  64  90 NE8       29.97R
PARIS*         PTCLDY    67  64  90 N5        29.99R
$$

ILZ079-100>102-290500-
SOUTHWEST ILLINOIS

CITY           SKY/WX    TMP DP  RH WIND       PRES   REMARKS
ALTON          CLEAR     69  66  91 N3        29.98S
BELLEVILLE     CLEAR     72  65  78 N7        29.97R
CAHOKIA*       CLEAR     74  63  68 NE6       29.97R
SPARTA*        CLEAR     72  65  78 N5        29.96S
$$

ILZ064>066-069>071-074>076-080>082-084>086-088>090-092>094-290500-
SOUTH-CENTRAL ILLINOIS

CITY           SKY/WX    TMP DP  RH WIND       PRES   REMARKS
CARBONDALE     CLEAR     72  67  84 N6        29.93R
CAIRO*         CLEAR     76  69  79 N9G16     29.90R
EFFINGHAM*     CLEAR     70  65  84 N6        29.98S
MARION         PTCLDY    73  70  88 N6        29.94R
MT. VERNON     CLEAR     70  65  84 N5        29.95R
CENTRALIA*     CLEAR     73  65  77 N7        29.95R
SALEM*         CLEAR     72  64  75 N7        29.96R
METROPOLIS*    CLEAR     75  70  83 N6        29.90S
$$

ILZ067-068-072-073-078-083-087-091-290500-
SOUTHEAST ILLINOIS

CITY           SKY/WX    TMP DP  RH WIND       PRES   REMARKS
LAWRENCEVILLE  CLEAR     71  64  78 N9        29.93S
FLORA*         CLEAR     71  66  82 N8        29.95R
FAIRFIELD*     CLEAR     69  65  87 CALM      29.93R
HARRISBURG*    CLEAR     73  66  81 N3        29.92S
ROBINSON*      CLEAR     67  64  91 N5        29.95S
CARMI*         CLEAR     68  65  92 N3        29.92S
$$

ABBREVIATIONS USED IN REMARKS
   TC - TEMPERATURE IN CELSIUS
  WCI - WIND CHILL INDEX
   HX - HEAT INDEX
  VSB - VISIBILITY
$$




USA.gov is the U.S. government's official web portal to all federal, state and local government web resources and services.